x

9440910 - Toke Point, Wa (tokw1) Weather Station

11:30 - Sat 1st Oct 2016 All times are PDT. -7 hours from GMT.

  • Wind
    22mph, 28mph gusts
  • Sea Temp 56°f
  • Air Temp 56°f
  • Sea Pressure 1012.5mb
  • 9440910 - Toke Point, Wa
  • 9440910 - Toke Point, Wa

More Historic Weather Station data

Upgrade to MSW Pro to gain access to the past 30 days of data for over 8000 Wavebouys and Weather Stations around the globe.

Join Pro

Comparision Forecast

View Surf forecast
   
sam. 10/01 11:30 22 28 mph 1012.5mb 56f 56f
11:24 23 26 mph 1012.4mb 56f 56f
11:18 20 23 mph 1012.5mb 56f 55f
11:12 21 23 mph 1012.4mb 56f 56f
11:06 17 23 mph 1012.4mb 56f 56f
11:00 20 24 mph 1012.3mb 56f 56f
10:54 21 25 mph 1012.2mb 57f 56f
10:48 20 26 mph 1012.2mb 57f 56f
10:42 21 26 mph 1012.1mb 57f 56f
10:36 16 24 mph 1012.1mb 57f 56f
10:30 15 21 mph 1012.2mb 56f 56f
10:24 14 20 mph 1012.2mb 56f 55f
10:18 13 16 mph 1012.3mb 57f 54f
10:12 8 13 mph 1012.2mb 56f 54f
10:06 10 14 mph 1012.1mb 57f 54f
10:00 13 16 mph 1012.1mb 57f 53f
9:54 15 17 mph 1012.1mb 57f 54f
9:48 13 16 mph 1012.1mb 57f 54f
9:42 14 18 mph 1012.2mb 56f 53f
9:36 14 17 mph 1012.2mb 56f 53f
9:30 15 20 mph 1012.3mb 56f 53f
9:24 16 20 mph 1012.3mb 56f 53f
9:18 15 17 mph 1012.2mb 57f 53f
9:12 15 18 mph 1012.2mb 57f 53f
9:06 15 18 mph 1012.3mb 56f 53f
9:00 15 18 mph 1012.3mb 56f 53f
8:54 15 18 mph 1012.4mb 56f 53f
8:48 13 16 mph 1012.4mb 56f 53f
8:42 13 20 mph 1012.3mb 56f 53f
8:36 16 21 mph 1012.1mb 56f 53f
8:30 16 20 mph 1012mb 56f 53f
8:24 17 21 mph 1012mb 57f 53f
8:18 16 22 mph 1012.1mb 57f 53f
8:12 20 23 mph 1012mb 56f 53f
8:06 18 22 mph 1012mb 57f 53f
8:00 16 20 mph 1012mb 57f 53f
7:54 17 21 mph 1012mb 56f 53f
7:48 16 20 mph 1012mb 56f 53f
7:42 15 21 mph 1011.9mb 56f 53f
7:36 16 20 mph 1011.9mb 56f 53f
7:30 17 21 mph 1011.9mb 56f 54f
7:24 16 23 mph 1012mb 56f 53f
7:18 18 22 mph 1011.9mb 56f 53f
7:12 17 22 mph 1011.9mb 56f 54f
7:06 16 22 mph 1011.9mb 57f 54f
7:00 16 21 mph 1011.8mb 57f 55f
6:54 15 18 mph 1011.8mb 57f 55f
6:48 16 20 mph 1011.8mb 57f 55f
6:42 18 22 mph 1011.8mb 57f 55f
6:36 16 20 mph 1011.8mb 57f 55f
6:30 14 18 mph 1011.8mb 57f 55f
6:24 16 20 mph 1011.7mb 57f 55f
6:18 14 17 mph 1011.8mb 57f 55f
6:12 14 17 mph 1011.8mb 57f 54f
6:06 13 17 mph 1011.8mb 57f 55f
6:00 14 16 mph 1011.8mb 57f 54f
5:54 14 17 mph 1011.8mb 57f 54f
5:48 15 17 mph 1011.8mb 57f 54f
5:42 14 16 mph 1011.8mb 57f 54f
5:36 14 16 mph 1011.8mb 57f 54f
5:30 14 16 mph 1011.8mb 57f 54f
5:24 14 17 mph 1011.8mb 57f 54f
5:18 14 17 mph 1011.8mb 57f 54f
5:12 14 15 mph 1011.9mb 56f 54f
5:06 13 16 mph 1012mb 56f 54f
5:00 13 15 mph 1012.1mb 57f 54f
4:54 13 16 mph 1012.1mb 56f 54f
4:48 13 15 mph 1012.1mb 56f 54f
4:42 11 16 mph 1012.1mb 56f 54f
4:36 13 14 mph 1012.2mb 56f 54f
4:30 13 15 mph 1012.3mb 56f 53f
4:24 13 14 mph 1012.3mb 56f 53f
4:18 11 16 mph 1012.4mb 56f 54f
4:12 14 16 mph 1012.5mb 56f 54f
4:06 13 16 mph 1012.6mb 57f 54f
4:00 13 14 mph 1012.6mb 56f 53f
3:54 14 16 mph 1012.6mb 56f 53f
3:48 14 18 mph 1012.7mb 56f 53f
3:42 15 18 mph 1012.8mb 56f 53f
3:36 15 17 mph 1012.9mb 55f 53f
3:30 15 18 mph 1012.9mb 55f 53f
3:24 15 18 mph 1012.9mb 56f 53f
3:18 15 17 mph 1013mb 56f 53f
3:12 13 14 mph 1013mb 56f 53f
3:06 11 14 mph 1013mb 55f 53f
3:00 10 14 mph 1013.1mb 56f 53f
2:54 9 10 mph 1013.2mb 55f 53f
2:48 9 11 mph 1013.3mb 55f 52f
2:42 8 10 mph 1013.3mb 55f 52f
2:36 9 10 mph 1013.3mb 55f 52f
2:30 9 10 mph 1013.3mb 55f 52f
2:24 8 9 mph 1013.3mb 55f 52f
2:18 8 10 mph 1013.4mb 55f 53f
2:12 10 11 mph 1013.4mb 55f 53f
2:06 10 13 mph 1013.5mb 54f 53f
2:00 11 13 mph 1013.5mb 54f 53f
1:54 11 13 mph 1013.4mb 55f 53f
1:48 10 11 mph 1013.5mb 55f 53f
1:42 10 11 mph 1013.6mb 55f 53f
1:36 10 11 mph 1013.7mb 55f 53f
1:30 10 11 mph 1013.7mb 55f 53f
1:24 9 11 mph 1013.8mb 55f 53f
1:18 9 11 mph 1013.9mb 55f 53f
1:12 10 11 mph 1013.9mb 55f 54f
1:06 10 13 mph 1013.9mb 56f 54f
1:00 10 13 mph 1013.9mb 56f 54f
12:54 10 13 mph 1014mb 56f 54f
12:48 10
mph
1014mb 56f 54f
12:42 9
mph
1014.1mb 56f 54f
12:36 8 10 mph 1014.2mb 57f 54f
12:30 8 15 mph 1014.1mb 57f 55f
12:24 10 13 mph 1014.1mb 58f 55f
12:18 11 13 mph 1014.1mb 58f 55f
12:12 11 14 mph 1014.2mb 58f 55f
12:06 10 13 mph 1014.2mb 58f 55f
12:00 10 13 mph 1014.3mb 58f 55f
ven. 09/30 11:30 10 11 mph 1014.5mb 58f 55f
11:24 10 11 mph 1014.5mb 58f 55f
11:18 9 11 mph 1014.4mb 58f 55f
11:12 7 9 mph 1014.4mb 58f 55f
11:06 7 9 mph 1014.4mb 58f 55f
11:00 8 9 mph 1014.4mb 58f 55f
10:54 7 9 mph 1014.5mb 58f 55f
10:48 9 13 mph 1014.6mb 58f 55f
10:42 8 16 mph 1014.7mb 59f 55f
10:36 11 14 mph 1014.7mb 59f 56f
10:30 10 13 mph 1014.7mb 59f 55f
10:24 11 14 mph 1014.8mb 59f 55f
10:18 11 14 mph 1014.8mb 58f 55f
10:12 14 17 mph 1014.7mb 58f 55f
10:06 14 17 mph 1014.7mb 58f 55f
10:00 13 16 mph 1014.8mb 59f 55f
9:54 14 20 mph 1014.9mb 59f 55f
9:48 13 18 mph 1014.9mb 60f 55f
9:42 15 21 mph 1015mb 60f 55f
9:36 15 20 mph 1015mb 59f 55f
9:30 14 17 mph 1015.1mb 59f 55f
9:24 16 21 mph 1015mb 59f 55f
9:18 16 21 mph 1015.1mb 59f 55f
9:12 17 21 mph 1015.1mb 59f 55f
9:06 15 18 mph 1015.1mb 59f 55f
9:00 15 20 mph 1015.2mb 59f 55f
8:54 15 18 mph 1015.1mb 59f 55f
8:48 16 20 mph 1015.1mb 59f 55f
8:42 18 21 mph 1015.2mb 59f 55f
8:36 17 21 mph 1015.2mb 58f 55f
8:30 16 21 mph 1015.3mb 59f 56f
8:24 17 21 mph 1015.3mb 59f 56f
8:18 16 20 mph 1015.3mb 59f 56f
8:12 18 21 mph 1015.3mb 59f 56f
8:06 16 20 mph 1015.2mb 58f 56f
8:00 13 17 mph 1015.3mb 58f 56f
7:54 14 18 mph 1015.2mb 58f 56f
7:48 14 18 mph 1015.3mb 59f 56f
7:42 10 14 mph 1015.4mb 59f 56f
7:36 10 14 mph 1015.5mb 58f 56f
7:30 10 15 mph - 58f 56f
7:24 10 14 mph - 58f 56f
7:18 11 15 mph - - -
7:12 11 16 mph 1015.4mb 58f 56f
7:06 11 16 mph 1015.4mb 59f 56f
7:00 13 15 mph 1015.5mb 59f 56f
6:54 9 14 mph 1015.6mb 58f 56f
6:48 9 15 mph 1015.6mb 58f 56f
6:42 10 13 mph 1015.4mb 58f 56f
6:36 8 10 mph 1015.5mb 58f 56f
6:30 9 13 mph 1015.6mb 58f -
6:24 11 14 mph 1015.7mb 58f -
6:18 9 14 mph 1015.6mb 58f 56f
6:12 10 13 mph 1015.8mb 58f 56f
6:06 6 8 mph 1015.9mb 58f 56f
6:00 6 9 mph 1015.9mb 58f 55f
5:54 7 10 mph 1015.8mb 58f 55f
5:48 7 8 mph 1016mb 58f 55f
5:42 6 8 mph 1015.9mb 58f 55f
5:36 6 9 mph 1016mb 58f 55f
5:30 7 10 mph 1016.1mb 58f -
5:24 8 10 mph 1016mb 58f -
5:18 8 11 mph 1016mb 58f 55f
5:12 9 11 mph 1016.2mb 58f 55f
5:06 9 11 mph 1016.2mb 58f 55f
5:00 8 10 mph 1016.2mb 58f 55f
4:54 7 10 mph 1016.2mb 57f 55f
4:48 6 8 mph - - -
4:42 6 9 mph 1016.3mb 58f -
4:36 8 11 mph 1016.3mb 58f -
4:00 7 9 mph 1016.2mb 57f 54f
3:54 8 10 mph 1016.2mb 56f 53f
3:48 8 11 mph 1016.2mb 57f -
3:42 7 10 mph 1016.2mb 56f -
3:36 8 10 mph 1016.3mb 56f -
3:30 8 11 mph 1016.3mb 54f 54f
3:24 9 11 mph 1016.3mb 55f 53f
3:18 8 11 mph - 56f 53f
3:12 8 11 mph - 54f 53f
3:06 8 14 mph - 56f 53f
3:00 10 13 mph 1016.2mb 55f 53f
2:54 10 13 mph 1016.2mb 54f 52f
2:48 8 13 mph 1016.2mb 55f 53f
2:42 9 13 mph 1016.2mb 55f 52f
2:36 9 13 mph 1016.2mb 55f 52f
2:30 9 13 mph 1016.2mb 55f 52f
2:24 8 11 mph 1016.2mb 54f 52f
2:18 9 13 mph 1016.2mb 54f 53f
2:12 9 11 mph 1016.1mb 53f 53f
2:06 8 11 mph 1016.1mb 53f 53f
2:00 6 10 mph 1016.1mb 53f 53f
1:54 7 11 mph 1016.1mb 54f 53f
1:48 8 10 mph 1016.2mb 54f 54f
1:42 6 11 mph 1016.2mb 54f 53f
1:36 9 11 mph 1016.2mb 54f 53f
1:30 8 11 mph 1016.2mb 54f 53f
1:24 8 11 mph 1016.3mb 55f 53f
1:18 9 11 mph 1016.3mb 55f 53f
1:12 8 9 mph 1016.3mb 55f 53f
1:06 7 9 mph 1016.4mb 55f 54f
1:00 7 9 mph 1016.4mb 55f 54f
12:54 1 5 mph 1016.4mb 55f 56f
12:48 1 2 mph 1016.5mb 55f 56f
12:42 1 2 mph 1016.6mb 56f 55f
12:36 2 3 mph 1016.6mb 56f 55f
12:30 1 3 mph 1016.6mb 56f 54f
12:24 5 6 mph 1016.7mb 56f 54f
12:18 5 6 mph 1016.7mb 56f 53f
12:12 3 5 mph 1016.7mb 56f 54f
12:06 1 2 mph 1016.8mb 57f 55f
12:00 1 3 mph 1016.8mb 57f 54f
11:54 1 2 mph 1016.8mb 58f 54f
11:48 1 3 mph 1016.8mb 58f 53f
11:42 3 7 mph 1016.8mb 58f 53f
11:36 1
mph
1016.8mb 58f 53f
11:30  -  2 mph 1016.8mb 58f 53f
11:24 1 3 mph 1016.9mb 58f 52f
11:18 2 6 mph 1016.9mb 58f 52f
11:12 5 7 mph 1016.8mb 58f 52f
11:06 3 6 mph 1016.8mb 58f 52f
11:00 5 7 mph 1016.8mb 58f 52f
10:54 5 7 mph 1016.9mb 58f 52f
10:48 2 5 mph 1016.9mb 58f 52f
10:42 5 8 mph 1016.9mb 58f 52f
10:36 3 7 mph 1016.9mb 58f 52f
10:30 5 7 mph 1016.9mb 58f 51f
10:24 6 7 mph 1016.9mb 58f 51f
10:18 3 6 mph 1017mb 58f 51f
10:12 3 8 mph 1017mb 58f 51f
10:06 5 7 mph 1017mb 58f 51f
10:00 3 5 mph 1017mb 58f 51f
9:54 5 6 mph 1017mb 58f 51f
9:48 2 7 mph 1017.1mb 58f 51f
9:42 7 9 mph 1017.1mb 58f 51f
9:36 6 8 mph 1017.1mb 58f 51f
9:30 7 8 mph 1017.1mb 58f 51f
9:24 7 8 mph 1017mb 58f 50f
9:18 6 8 mph 1017mb 58f 50f
9:12 5 8 mph 1017.1mb 58f 51f
9:06 5 9 mph 1017.2mb 58f 50f
9:00 6 7 mph 1017.1mb 58f 50f
8:54 7 9 mph 1017.2mb 58f 50f
8:48 3 8 mph 1017.2mb 58f 49f
8:42 7 9 mph 1017.2mb 58f 49f
8:36 7 8 mph 1017.2mb 58f 50f
8:30 5 7 mph 1017.2mb 58f 50f
8:24 6 7 mph 1017.2mb 58f 50f
8:18 5 7 mph 1017.3mb 58f 50f
8:12 3 5 mph 1017.4mb 58f 50f
8:06 1 6 mph 1017.4mb 58f 50f
8:00 5 6 mph 1017.4mb 58f 50f
7:54 6 7 mph 1017.4mb 58f 50f
7:48 6 7 mph 1017.4mb 58f 50f
7:42 6 7 mph 1017.5mb 58f 50f
7:36 3 5 mph 1017.5mb 58f 50f
7:30 3 5 mph 1017.5mb 58f 50f
7:24 3 5 mph 1017.5mb 58f 50f
7:18 5 7 mph 1017.5mb 58f 50f
7:12 3 6 mph 1017.5mb 58f 50f
7:06 6 8 mph 1017.5mb 58f 50f
7:00 6 7 mph 1017.5mb 58f 50f
6:54 6 8 mph 1017.4mb 58f 50f
6:48 7 8 mph 1017.4mb 58f 50f
6:42 7 8 mph 1017.4mb 58f 50f
6:36 7 8 mph 1017.5mb 58f 50f
6:30 6 7 mph 1017.5mb 58f 50f
6:24 6
mph
1017.6mb 58f 50f
6:18 5 6 mph 1017.6mb 58f 50f
6:12 3 6 mph 1017.6mb 58f 50f
6:06 3 5 mph 1017.6mb 58f 50f
6:00 1 2 mph 1017.6mb 58f 50f
5:54  -  5 mph 1017.6mb 58f 50f
5:48 2 3 mph 1017.6mb 58f 50f
5:42 3 7 mph 1017.6mb 58f 50f
5:36 7 9 mph 1017.7mb 58f 50f
5:30 9 10 mph 1017.7mb 58f 50f
5:24 9 10 mph 1017.7mb 58f 50f
5:18 8 9 mph 1017.7mb 58f 50f
5:12 8 9 mph 1017.7mb 58f 50f
5:06 8
mph
1017.8mb 58f 50f
5:00 7 8 mph 1017.8mb 58f 50f
4:54 7 8 mph 1017.8mb 58f 50f
4:48 7 8 mph 1017.9mb 58f 50f
4:42 7 8 mph 1017.9mb 58f 51f
4:36 6 7 mph 1017.9mb 58f 50f
4:30 6 7 mph 1017.9mb 58f 51f
4:24 3 7 mph 1018mb 58f 51f
4:18 5 7 mph 1018mb 58f 51f
4:12 7 8 mph 1018mb 58f 51f
4:06 6 7 mph 1018mb 58f 51f
4:00 5 7 mph 1018mb 58f 51f
3:54 7 8 mph 1018mb 58f 51f
3:48 6 7 mph 1018mb 58f 51f
3:42 3 6 mph 1018.1mb 58f 51f
3:36 6
mph
1018.1mb 58f 51f
3:30 6 7 mph 1018.2mb 58f 51f
3:24 5 6 mph 1018.2mb 57f 51f
3:18 3 5 mph 1018.3mb 57f 51f
3:12 2 5 mph 1018.4mb 57f 51f
3:06 3 5 mph 1018.4mb 56f 51f
3:00 2 3 mph 1018.4mb 56f 52f
2:54 1 2 mph 1018.4mb 56f 52f
2:48 2 3 mph 1018.4mb 57f 51f
2:42 3 5 mph 1018.4mb 56f 51f
2:36 3 5 mph 1018.4mb 57f 51f
2:30 2 5 mph 1018.3mb 57f 51f
2:24 2 3 mph 1018.3mb 57f 52f
2:18 2 3 mph 1018.2mb 56f 52f
2:12 1 2 mph 1018.2mb 56f 53f
2:06  -  2 mph 1018.3mb 56f 53f
2:00 1 2 mph 1018.3mb 56f 52f
1:54  -  3 mph 1018.3mb 56f 52f
1:48 2
mph
1018.3mb 55f 52f
1:42 2 5 mph 1018.3mb 56f 52f
1:36 3 5 mph 1018.3mb 56f 52f
1:30 2 3 mph 1018.3mb 56f 52f
1:24  -  1 mph 1018.4mb 56f 51f
1:18  -  2 mph 1018.4mb 56f 51f
1:12 2
mph
1018.4mb 56f 51f
1:06  -  2 mph 1018.4mb 56f 51f
1:00 2
mph
1018.4mb 56f 50f
12:54 2 3 mph 1018.4mb 56f 51f
12:48 2 3 mph 1018.5mb 56f 51f
12:42 2
mph
1018.5mb 56f 51f
12:36 2
mph
1018.5mb 56f 51f
12:30  -  1 mph 1018.5mb 56f 51f
12:24  -  2 mph 1018.5mb 56f 51f
12:18  -  1 mph 1018.6mb 57f 51f
12:12 1 2 mph 1018.7mb 58f 51f
12:06 1 2 mph 1018.7mb 58f 51f
12:00  -  2 mph 1018.6mb 58f 51f
jeu. 09/29 11:54 1 2 mph 1018.6mb 58f 51f
11:48 1 2 mph 1018.6mb - -
11:42 2
mph
1018.6mb - -
11:36 1 2 mph 1018.6mb - -
11:30 2 3 mph 1018.5mb 59f 52f
11:24 2 3 mph 1018.5mb 60f 52f
11:18 2 3 mph 1018.6mb 60f 52f
11:12 1 2 mph 1018.6mb 60f 52f
11:06 2 3 mph 1018.7mb 60f 51f
11:00 2 3 mph 1018.8mb 60f 51f
10:54 3
mph
1018.8mb 60f 51f
10:48 3
mph
1018.8mb 60f 51f
10:42 3
mph
1018.8mb 60f 52f
10:36 2 3 mph 1018.9mb 60f 53f
10:30 2
mph
1018.9mb 60f 53f
10:24 2
mph
1018.9mb 61f 53f
10:18 1 2 mph 1018.9mb 61f 52f
10:12 2 3 mph 1018.9mb 60f 51f
10:06 2 3 mph 1019mb 60f 51f
10:00 2 3 mph 1018.9mb 61f 52f
9:54 3
mph
1018.8mb 61f 53f
9:48 2
mph
1018.8mb 60f 54f
9:42 1 2 mph 1018.7mb 60f 54f
9:36 1
mph
1018.7mb 60f 54f
9:30 1 2 mph 1018.7mb 61f 54f
9:24 1 2 mph 1018.8mb 61f 55f
9:18 2
mph
1018.8mb 62f 55f
9:12 1 2 mph 1018.8mb 61f 55f
9:06 1 2 mph 1018.8mb 61f 55f
9:00 2
mph
1018.9mb 61f 55f
8:54 1
mph
1018.9mb 61f 55f
8:48 1 2 mph 1019.1mb 61f 55f
8:42 2
mph
1019.1mb 61f 55f
8:36  -  1 mph 1019.1mb 61f 55f
8:30  -  mph 1019.1mb 61f 54f
8:24  -  1 mph 1019mb 61f 54f
8:18  -  1 mph 1019mb 61f 54f
8:12  -  2 mph 1019mb 61f 55f
8:06 1 2 mph 1019.1mb 61f 55f
8:00 1 3 mph 1019.1mb 60f 55f
7:54 2 3 mph 1019.1mb 62f 55f
7:48 2 3 mph 1019mb 61f 55f
7:42 3
mph
1019.1mb 61f 55f
7:36 2 3 mph 1019.1mb 61f 55f
7:30 3
mph
1019mb 60f 55f
7:24 2 6 mph 1019mb 60f 56f
7:18 5 7 mph 1019mb 60f 56f
7:12 5 7 mph 1018.9mb 60f 56f
7:06 5 6 mph 1019mb 60f 56f
7:00 5 6 mph 1018.9mb 61f 56f
6:54 5 6 mph 1019.1mb 60f 56f
6:48 6 8 mph 1019.1mb 60f 56f
6:42 7 9 mph 1019.2mb 60f 57f
6:36 7 8 mph 1019.1mb 60f 57f
6:30 7 9 mph 1019mb 60f 57f
6:24 6 7 mph 1019mb 60f 57f
6:18 7 8 mph 1019.2mb 61f 57f
6:12 8 9 mph 1019.2mb 61f 58f
6:06 7 8 mph 1018.9mb 60f 58f
6:00 7 10 mph 1018.9mb 60f 58f
5:54 9 11 mph 1019mb 60f 58f
5:48 9 15 mph 1019mb 60f 58f
5:42 13 16 mph 1019.2mb 61f 58f
5:36 14 17 mph 1019.1mb 60f 58f
5:30 13 16 mph 1019mb 60f 58f
5:24 11 14 mph 1019.2mb 61f 59f
5:18 10 15 mph 1019.2mb 60f 59f
5:12 14 17 mph 1019mb 60f 59f
5:06 15 17 mph 1019.1mb 60f 59f
5:00 13 15 mph 1019.1mb 60f 59f
4:54 13 18 mph 1019.1mb 61f 60f
4:48 17 21 mph 1019.1mb 60f -
4:42 16 21 mph 1019.2mb 60f -
4:36 13 16 mph 1019.2mb 60f -
4:30 15 17 mph 1019.3mb 60f 59f
4:24 14 18 mph 1019.2mb 60f 59f
4:18 11 15 mph 1019.2mb 60f 59f
4:12 11 17 mph 1019.2mb 60f 59f
4:06 13 18 mph 1019.2mb 60f 59f
4:00 14 21 mph 1019.2mb 60f 59f
3:54 15 21 mph 1019.1mb 59f 59f
3:48 18 23 mph 1019.1mb 60f -
3:42 15 21 mph 1019.2mb 60f -
3:36 15 20 mph 1019.1mb 60f -
3:30 11 16 mph 1019mb 60f 60f
3:24 13 17 mph 1019mb 60f 60f
3:18  -  mph 1019mb 60f -
3:12  -  mph 1019mb 60f -
3:06  -  mph 1019mb 59f -
3:00 14 18 mph 1019mb 59f 61f
2:54 13 20 mph 1019.1mb 59f 61f
2:48 16 18 mph - 59f 60f
2:42 17 21 mph - 57f 61f
2:36 14 18 mph - 58f 60f
2:30 15 17 mph 1019.1mb 57f 61f
2:24 14 17 mph 1019mb 57f 60f
2:18 8 13 mph 1019mb 56f 61f
2:12 13 18 mph 1019mb 56f 61f
2:06 13 18 mph 1019mb 55f 61f
2:00 10 16 mph 1019mb 55f 61f
1:54 10 15 mph 1019.1mb 55f 61f
1:48 14 20 mph 1019.1mb 55f 61f
1:42 15 18 mph 1019.1mb 56f 61f
1:36 17 21 mph 1019mb 55f 60f
1:30 13 16 mph 1019.2mb 55f 61f
1:24 11 15 mph 1019.1mb 56f 61f
1:18 14 16 mph 1019.2mb 56f 61f
1:12 11 14 mph 1019.1mb 55f 61f
1:06 8 15 mph 1019.1mb 56f 61f
1:00 14 15 mph 1019mb 56f 61f
12:54 11 14 mph 1018.9mb 56f 61f
12:48 10 14 mph 1019mb 56f 61f
12:42 13 15 mph 1019mb 57f 61f
12:36 10 13 mph 1019.1mb 57f 61f
12:30 10 13 mph 1019.2mb 58f 61f
12:24 5 7 mph 1019.3mb 58f 60f
12:18 2 6 mph 1019.4mb 58f 61f
12:12 2 6 mph 1019.3mb 58f 58f
12:06 2 5 mph 1019.3mb 58f 59f
12:00  -  5 mph 1019.4mb 59f 59f
11:54 2 5 mph 1019.4mb 59f 58f
11:48 2 6 mph 1019.4mb 59f 58f
11:42 6 7 mph 1019.5mb 59f 56f
11:36 6 7 mph 1019.6mb 59f 56f
11:30 6 7 mph 1019.6mb 59f 55f
11:24 5 6 mph 1019.6mb 59f 55f
11:18 5
mph
1019.6mb 59f 55f
11:12 3 5 mph 1019.5mb 59f 55f
11:06 3 5 mph 1019.5mb 59f 55f
11:00 3 5 mph 1019.5mb 59f 55f
10:54 3 5 mph 1019.5mb 59f 55f
10:48 5 6 mph 1019.5mb 59f 54f
10:42 5
mph
1019.5mb 59f 54f
10:36 5 6 mph 1019.5mb 59f 54f
10:30 5
mph
1019.5mb 59f 54f
10:24 3 5 mph 1019.4mb 59f 54f
10:18 2 3 mph 1019.3mb 59f 54f
10:12 2 5 mph 1019.3mb 59f 54f
10:06 5
mph
1019.3mb 59f 53f
10:00 5 6 mph 1019.3mb 59f 53f
9:54 3 7 mph 1019.3mb 59f 53f
9:48 6
mph
1019.3mb 59f 52f
9:42 6 8 mph 1019.3mb 59f 52f
9:36 6 7 mph 1019.3mb 59f 51f
9:30 6 8 mph 1019.3mb 59f 51f
9:24 7 8 mph 1019.3mb 59f 50f
9:18 7 8 mph 1019.2mb 59f 49f
9:12 6 7 mph 1019.2mb 59f 49f
9:06 7 8 mph 1019.2mb 60f 49f
9:00 7 8 mph 1019.2mb 59f 49f
8:54 7 8 mph 1019.2mb 59f 49f
8:48 6 8 mph 1019.2mb 59f 48f
8:42 7 8 mph 1019.1mb 59f 47f
8:36 8
mph
1019.1mb 59f 47f
8:30 8 9 mph 1019mb 59f 47f
8:24 8 9 mph 1019mb 59f 47f
8:18 8 9 mph 1018.9mb 59f 47f
8:12 8 9 mph 1018.9mb 59f 47f
8:06 8 9 mph 1018.9mb 59f 47f
8:00 8 9 mph 1018.8mb 59f 47f
7:54 7 9 mph 1018.9mb 59f 47f
7:48 8 9 mph 1018.8mb 60f 47f
7:42 8 9 mph 1018.8mb 60f 48f
7:36 8
mph
1018.8mb 60f 48f
7:30 7 8 mph 1018.8mb 59f 48f
7:24 8 9 mph 1018.6mb 60f 48f
7:18 7 8 mph 1018.6mb 60f 48f
7:12 7 8 mph 1018.6mb 60f 49f
7:06 7 8 mph 1018.6mb 60f 49f
7:00 7 9 mph 1018.4mb 59f 49f
6:54 7 8 mph 1018.3mb 60f 49f
6:48 6 8 mph 1018.3mb 60f 49f
6:42 7 8 mph 1018.3mb 59f 49f
6:36 6 7 mph 1018.3mb 59f 49f
6:30 6 7 mph 1018.3mb 59f 50f
6:24 6 8 mph 1018.3mb 59f 50f
6:18 6 7 mph 1018.3mb 59f 50f
6:12 6 7 mph 1018.2mb 59f 50f
6:06 6 7 mph 1018.3mb 59f 50f
6:00 6 7 mph 1018.3mb 59f 50f
5:54 6
mph
1018.2mb 59f 50f
5:48 6 7 mph 1018.2mb 59f 50f
5:42 6 7 mph 1018.2mb 59f 51f
5:36 5 6 mph 1018.2mb 59f 51f
5:30 5 6 mph 1018.2mb 59f 52f
5:24 3 5 mph 1018.2mb 59f 52f
5:18 3 5 mph 1018.2mb 59f 52f
5:12 3 6 mph 1018.2mb 59f 52f
5:06 3 5 mph 1018.1mb 59f 52f
5:00 5 7 mph 1018.1mb 59f 52f
4:54 5 6 mph 1018.2mb 59f 52f
4:48 5 7 mph 1018.1mb 59f 52f
4:42 5 7 mph 1018.1mb 59f 52f
4:36 5 6 mph 1018.1mb 59f 52f
4:30 5 7 mph 1018.1mb 59f 53f
4:24 3 7 mph 1018.2mb 59f 53f
4:18 5 7 mph 1018.2mb 59f 53f
4:12 3 6 mph 1018.2mb 59f 53f
4:06 3 6 mph 1018.2mb 59f 53f
4:00 3 6 mph 1018.2mb 59f 53f
3:54 3 6 mph 1018.2mb 59f 53f
3:48 5 6 mph 1018.1mb 59f 53f
3:42 5 7 mph 1018.1mb 59f 53f
3:36 7 8 mph 1018.1mb 59f 53f
3:30 5 8 mph 1018.1mb 59f 53f
3:24 5 6 mph 1018.1mb 59f 53f
3:18 3 6 mph 1018mb 59f 53f
3:12 3 5 mph 1018mb 59f 53f
3:06 2 5 mph 1017.9mb 59f 53f
3:00 1 5 mph 1017.9mb 59f 53f
2:54 3 6 mph 1017.9mb 58f 53f
2:48 2 5 mph 1017.9mb 59f 53f
2:42 3 6 mph 1017.9mb 59f 53f
2:36 2 3 mph 1017.9mb 58f 53f
2:30 2 5 mph 1017.9mb 58f 53f
2:24 3 5 mph 1017.9mb 58f 53f
2:18 3 5 mph 1017.9mb 59f 53f
2:12 2 5 mph 1017.9mb 59f 54f
2:06 3 6 mph 1017.9mb 59f 54f
2:00 3 6 mph 1017.9mb 59f 54f
1:54 3 5 mph 1017.9mb 59f 53f
1:48 5 6 mph 1017.9mb 58f 53f
1:42 3 6 mph 1017.9mb 58f 53f
1:36 6
mph
1018mb 58f 53f
1:30 3 5 mph 1018mb 58f 54f
1:24 3 6 mph 1018mb 58f 53f
1:18 5 6 mph 1018mb 58f 54f
1:12 5 6 mph 1017.9mb 58f 54f
1:06 5 6 mph 1018mb 58f 54f
1:00 3 6 mph 1018mb 58f 54f
12:54 5 6 mph 1017.9mb 58f 54f
12:48 5 6 mph 1017.9mb 57f 54f
12:42 5 6 mph 1017.9mb 58f 54f
12:36 6 7 mph 1017.9mb 58f 54f
12:30 5 7 mph 1017.9mb 58f 54f
12:24 6 7 mph 1017.9mb 58f 54f
12:18 5 6 mph 1017.9mb 58f 54f
12:12 5 7 mph 1017.9mb 58f 55f
12:06 6 7 mph 1017.9mb 58f 55f
12:00 5 8 mph 1017.9mb 58f 55f
mer. 09/28 11:54 7 8 mph 1017.9mb 58f 55f
11:48 7 9 mph 1017.9mb - -
11:42 6 11 mph 1017.9mb - -
11:36 8 11 mph 1018mb - -
11:30 6 9 mph 1018mb 60f 55f
11:24 7 9 mph 1018mb 60f 55f
11:18 6 9 mph 1018mb 60f 55f
11:12 5 6 mph 1018.1mb 60f 55f
11:06 3 6 mph 1018.1mb 61f 55f
11:00 6 9 mph 1018.1mb 61f 55f
10:54 6 8 mph 1018.1mb 61f 55f
10:48 6 10 mph 1018.1mb 62f -
10:42 8 10 mph 1018mb 62f -
10:36 7 9 mph 1018mb 62f -
10:30 6 13 mph 1018mb 62f 55f
10:24 7 9 mph 1018mb 62f 55f
10:18 8 11 mph 1017.9mb 62f 55f
10:12 7 9 mph 1017.9mb 62f 55f
10:06 6 8 mph 1018mb 62f 55f
10:00 6 8 mph 1017.9mb 62f 55f
9:54 5 8 mph 1018mb 62f 55f
9:48 6 8 mph 1017.9mb 62f 55f
9:42 7 10 mph 1017.9mb 63f 55f
9:36 8 11 mph 1017.9mb 62f 55f
9:30 9 11 mph 1017.9mb 63f 55f
9:24 9 15 mph 1017.9mb 63f 55f
9:18 11 14 mph 1017.8mb 63f 55f
9:12 11 16 mph 1017.8mb 63f 55f
9:06 13 18 mph 1017.8mb 62f 56f
9:00 13 16 mph 1017.8mb 63f 56f
8:54 14 17 mph 1017.7mb 63f 56f
8:48 15 18 mph 1017.8mb 63f 56f
8:42 15 20 mph 1017.8mb 63f 56f
8:36 16 21 mph 1017.8mb 63f 56f
8:30 14 17 mph 1017.8mb 63f 56f
8:24 10 13 mph 1017.9mb 63f 55f
8:18 7 9 mph 1017.8mb 63f 55f
8:12 7 10 mph 1017.8mb 63f 55f
8:06 8 10 mph 1017.8mb 63f 55f
8:00 6 8 mph 1017.8mb 63f 55f
7:54 5 7 mph 1017.8mb 63f 55f
7:48 5 6 mph 1017.8mb 62f 56f
7:42 3 8 mph 1017.8mb 62f 56f
7:36 7 8 mph 1017.8mb 62f 56f
7:30 5 8 mph 1017.8mb 62f 56f
7:24 5 9 mph 1017.8mb 62f 56f
7:18 5 8 mph 1017.8mb 63f 56f
7:12 6 11 mph 1017.8mb 63f 56f
7:06 8 11 mph 1017.7mb 63f 56f
7:00 6 9 mph 1017.7mb 63f 57f
6:54 6 8 mph 1017.8mb 63f 57f
6:48 7 10 mph 1017.7mb 62f 57f
6:42 6 9 mph 1017.8mb 62f 57f
6:36 7 10 mph 1017.8mb 63f 58f
6:30 9 14 mph 1017.8mb 63f 58f
6:24 11 14 mph 1017.7mb 63f 58f
6:18 13 15 mph 1017.7mb 62f 58f
6:12 14 17 mph 1017.8mb 62f 58f
6:06 9 14 mph 1017.8mb 62f 59f
6:00 14 20 mph 1017.8mb 63f 59f
5:54 16 18 mph 1017.7mb 62f 60f
5:48 15 18 mph 1017.7mb 62f 60f
5:42 14 16 mph 1017.7mb 63f 60f
5:36 10 14 mph 1017.8mb 63f 60f
5:30 11 15 mph - 62f 60f
5:24 11 16 mph - 62f 61f
5:18 11 15 mph - - -
5:12 14 16 mph 1017.8mb 63f 61f
5:06 14 18 mph 1017.8mb 63f 61f
5:00 15 18 mph 1017.8mb 62f 61f
4:54 14 16 mph 1017.8mb 62f 61f
4:48 13 15 mph 1017.8mb 63f -
4:42 14 18 mph 1017.8mb 63f -
4:36 16 18 mph 1017.8mb 63f -
4:30 15 17 mph 1017.8mb 63f 61f
4:24 15 17 mph 1017.8mb 63f 61f
4:18 14 17 mph 1017.9mb 63f 62f
4:12 15 18 mph 1017.8mb 63f 62f
4:06 15 16 mph 1017.9mb 63f 62f
4:00 15 18 mph 1017.9mb 63f 62f
3:54 14 18 mph 1017.9mb 63f 62f
3:48 15 18 mph - - -
3:42 15 17 mph 1018mb 62f -
3:36 13 16 mph 1018mb 62f -
3:30 15 16 mph 1018mb 62f 62f
3:24 14 17 mph 1018mb 62f 63f
3:18 16 18 mph 1018mb 62f 63f
3:12 13 15 mph 1018.1mb 62f 63f
3:06 14 15 mph 1018.1mb 62f 63f
3:00 8 13 mph 1018.1mb 61f 64f
2:54 10 13 mph 1018.1mb 62f 65f
2:48 11 14 mph 1018.1mb 61f 64f
2:42 11
mph
1018.2mb 60f 65f
2:36 9 14 mph 1018.2mb 60f 65f
2:30 10 13 mph 1018.2mb 61f 65f
2:24 9 13 mph 1018.2mb 60f 65f
2:18 10 13 mph 1018.2mb 59f 65f
2:12 9 14 mph 1018.2mb 59f 65f
2:06 10 13 mph 1018.3mb 60f 65f
2:00 11 14 mph 1018.3mb 60f 64f
1:54 7 10 mph 1018.4mb 60f 64f
1:48 6 10 mph 1018.4mb 60f 64f
1:42 7 11 mph 1018.5mb 60f 63f
1:36 9 13 mph 1018.5mb 60f 62f
1:30 10 14 mph 1018.7mb 59f 61f
1:24 10 15 mph 1018.8mb 59f 61f
1:18 11 15 mph 1018.8mb 59f 60f
1:12 11 16 mph 1018.9mb 59f 60f
1:06 13 16 mph 1018.9mb 59f 60f
1:00 10 15 mph 1019mb 59f 60f
12:54 9 11 mph 1019mb 59f 60f
12:48 9 11 mph 1019mb 59f 60f
12:42 7 9 mph 1019mb 59f 60f
12:36 6 9 mph 1019mb 59f 60f
12:30 7 9 mph 1019.1mb 59f 60f
12:24 7 8 mph 1019.1mb 59f 60f
12:18 7 8 mph 1019mb 59f 60f
12:12 6 7 mph 1019.1mb 59f 60f
12:06 3 6 mph 1019.1mb 60f 61f
12:00 1 2 mph 1019.1mb 60f 62f
11:54 1
mph
1019.2mb 60f 61f
11:48  -  1 mph 1019.3mb 60f 61f
11:42  -  1 mph 1019.3mb 60f 61f
11:36  -  1 mph 1019.3mb 60f 60f
11:30  -  1 mph 1019.4mb 60f 60f
11:24 2 3 mph 1019.4mb 61f 59f
11:18 3 5 mph 1019.4mb 61f 59f
11:12 3 5 mph 1019.4mb 61f 58f
11:06 5
mph
1019.5mb 61f 58f
11:00 5 6 mph 1019.5mb 61f 58f
10:54 5 6 mph 1019.5mb 61f 58f
10:48 6
mph
1019.5mb 61f 57f
10:42 5 7 mph 1019.5mb 61f 57f
10:36 6 7 mph 1019.5mb 61f 57f
10:30 6 7 mph 1019.5mb 61f 56f
10:24 6 7 mph 1019.6mb 61f 56f
10:18 6 7 mph 1019.6mb 61f 56f
10:12 6 8 mph 1019.6mb 61f 56f
10:06 6 7 mph 1019.6mb 61f 56f
10:00 6 7 mph 1019.6mb 61f 55f
9:54 6 7 mph 1019.6mb 61f 55f
9:48 6 7 mph 1019.6mb 61f 55f
9:42 6 7 mph 1019.6mb 61f 55f
9:36 5 6 mph 1019.6mb 61f 54f
9:30 5 6 mph 1019.6mb 61f 54f
9:24 3 6 mph 1019.6mb 61f 54f
9:18 5 6 mph 1019.6mb 61f 54f
9:12 2 5 mph 1019.7mb 61f 54f
9:06 2 5 mph 1019.7mb 61f 54f
9:00 3
mph
1019.7mb 61f 53f
8:54 2 5 mph 1019.7mb 61f 53f
8:48 3 5 mph 1019.6mb 61f 53f
8:42 2 3 mph 1019.7mb 61f 53f
8:36 3 7 mph 1019.7mb 61f 52f
8:30 6 7 mph 1019.7mb 61f 52f
8:24 7
mph
1019.6mb 61f 52f
8:18 7
mph
1019.7mb 61f 52f
8:12 6 7 mph 1019.7mb 61f 52f
8:06 3 6 mph 1019.7mb 61f 52f
8:00 2 3 mph 1019.7mb 61f 51f
7:54 1 3 mph 1019.7mb 61f 51f
7:48 1 2 mph 1019.6mb 61f 49f
7:42 2 3 mph 1019.6mb 61f 48f
7:36 3
mph
1019.6mb 61f 48f
7:30 2 5 mph 1019.5mb 61f 49f
7:24 3 5 mph 1019.4mb 61f 50f
7:18 5 6 mph 1019.5mb 61f 51f
7:12 5 6 mph 1019.4mb 62f 54f
7:06 5 7 mph 1019.4mb 62f 53f
7:00 6 7 mph 1019.4mb 62f 53f
6:54 6 7 mph 1019.4mb 61f 53f
6:48 6 7 mph 1019.4mb 62f 53f
6:42 7 8 mph 1019.4mb 61f 53f
6:36 3 6 mph 1019.5mb 61f 52f
6:30 5 6 mph 1019.5mb 62f 51f
6:24 6
mph
1019.5mb 62f 51f
6:18 6
mph
1019.5mb 61f 50f
6:12 6 7 mph 1019.5mb 61f 51f
6:06 7 8 mph 1019.5mb 61f 51f
6:00 6 7 mph 1019.4mb 61f 52f
5:54 5 6 mph 1019.4mb 61f 52f
5:48 5
mph
1019.4mb 61f 52f
5:42 3 5 mph 1019.4mb 61f 53f
5:36 5
mph
1019.3mb 61f 53f
5:30 3 5 mph 1019.2mb 61f 53f
5:24 3 5 mph 1019.2mb 61f 53f
5:18 3 5 mph 1019.2mb 61f 53f
5:12 5
mph
1019.1mb 61f 53f
5:06 5 6 mph 1019.2mb 61f 53f
5:00 5 6 mph 1019.2mb 61f 53f
4:54 5 6 mph 1019.2mb 61f 53f
4:48 6 8 mph 1019.2mb 61f 53f
4:42 7 9 mph 1019.2mb 61f 53f
4:36 8 9 mph 1019.2mb 61f 53f
4:30 7 8 mph 1019.3mb 61f 53f
4:24 8 9 mph 1019.3mb 61f 53f
4:18 8 9 mph 1019.3mb 61f 53f
4:12 8 9 mph 1019.3mb 61f 53f
4:06 8
mph
1019.3mb 61f 53f
4:00 7 8 mph 1019.3mb 61f 53f
3:54 8 9 mph 1019.3mb 61f 53f
3:48 9 10 mph 1019.4mb 61f 53f
3:42 8
mph
1019.3mb 61f 54f
3:36 6 8 mph 1019.3mb 61f 54f
3:30 7 8 mph 1019.3mb 61f 54f
3:24 5 6 mph 1019.4mb 61f 54f
3:18 3 6 mph 1019.4mb 61f 54f
3:12 5 7 mph 1019.4mb 61f 54f
3:06 7
mph
1019.4mb 61f 54f
3:00 6
mph
1019.5mb 61f 54f
2:54 6
mph
1019.6mb 61f 54f
2:48 6
mph
1019.5mb 61f 55f
2:42 6 8 mph 1019.5mb 61f 55f
2:36 7 8 mph 1019.5mb 61f 54f
2:30 7 8 mph 1019.6mb 61f 54f
2:24 6 7 mph 1019.6mb 61f 54f
2:18 6 7 mph 1019.7mb 61f 55f
2:12 6 7 mph 1019.6mb 61f 54f
2:06 6 7 mph 1019.7mb 61f 54f
2:00 6 7 mph 1019.7mb 61f 54f
1:54 6
mph
1019.8mb 61f 55f
1:48 3
mph
1019.7mb 61f 54f
1:42 2 3 mph 1019.8mb 60f 54f
1:36 3 5 mph 1019.9mb 60f 54f
1:30 5 6 mph 1019.8mb 61f 55f
1:24 3 6 mph 1019.8mb 60f 55f
1:18 5
mph
1019.9mb 61f 55f
1:12 6
mph
1019.8mb 61f 55f
1:06 5 6 mph 1019.7mb 61f 55f
1:00 6
mph
1019.8mb 60f 55f
12:54 6
mph
1019.8mb 60f 55f
12:48 5 6 mph 1019.8mb 60f 55f
12:42 5
mph
1019.8mb 60f 56f
12:36 5 6 mph 1019.8mb 60f 56f
12:30 5 6 mph 1019.8mb 60f 56f
12:24 5
mph
1019.7mb 60f 56f
12:18 5
mph
1019.7mb 60f 56f
12:12 3 5 mph 1019.7mb 60f 56f
12:06 3 5 mph 1019.8mb 59f 56f
12:00 3 5 mph 1019.8mb 60f 56f
mar. 09/27 11:54 2
mph
1019.9mb 60f 57f
11:48 2 3 mph 1020mb 60f 57f
11:42 3 5 mph 1019.9mb 60f 57f
11:36 3
mph
1019.9mb 60f 57f
11:30 3 5 mph 1019.9mb 60f 57f
11:24 5 6 mph 1020mb 60f 57f
11:18 5 7 mph 1020mb 60f 57f
11:12 5 6 mph 1020mb 60f 57f
11:06 5 6 mph 1020mb 61f 57f
11:00 5 6 mph 1020mb 61f 57f
10:54 3 5 mph 1020mb 62f 57f
10:48 3 6 mph 1020.1mb 62f -
10:42 2 5 mph 1020.1mb 62f -
10:36 2 3 mph 1020.1mb 62f -
10:30 3 8 mph 1020.1mb 62f 56f
10:24 8 11 mph 1020mb 62f 56f
10:18 9 10 mph 1020mb 63f 56f
10:12 8 9 mph 1020.1mb 63f 56f
10:06 7 8 mph 1020.1mb 64f 56f
10:00 6 9 mph 1020.2mb 64f 56f
9:54 8 9 mph 1020.2mb 64f 56f
9:48 7 9 mph 1020.2mb 64f 56f
9:42 8 9 mph 1020.2mb 64f 56f
9:36 8 9 mph 1020.3mb 64f 56f
9:30 7 8 mph 1020.3mb 64f 57f
9:24 3 7 mph 1020.4mb 64f 56f
9:18 6 8 mph 1020.4mb 64f 57f
9:12 6 8 mph 1020.4mb 64f 57f
9:06 7 8 mph 1020.3mb 64f 57f
9:00 6 10 mph 1020.2mb 64f 57f
8:54 10 11 mph 1020.1mb 64f 56f
8:48 9 13 mph 1020mb 64f 57f
8:42 11 14 mph 1019.9mb 64f 57f
8:36 13 16 mph 1019.9mb 64f 57f
8:30 14 18 mph 1019.9mb 64f 57f
8:24 15 18 mph 1019.8mb 64f 57f
8:18 16 20 mph 1019.8mb 64f 57f
8:12 18 21 mph 1019.8mb 64f 57f
8:06 18 21 mph 1019.8mb 64f 57f
8:00 18 22 mph 1019.7mb 64f 57f
7:54 20 22 mph 1019.7mb 64f 57f
7:48 17 21 mph 1019.8mb 64f 58f
7:42 18 22 mph 1019.8mb 64f 58f
7:36 18 22 mph 1019.8mb 64f 57f
7:30 18 22 mph 1019.7mb 65f 58f
7:24 17 20 mph 1019.8mb 64f 58f